Regional Weather Roundup
Issued by NWS

Home | Current Version | Previous Version | Graphics & Text | Print | Product List | Glossary On
Versions: 1 2 3 4 5 6 7 8 9 10 11 12 13 14 15 16 17 18 19 20 21 22 23 24 25 26 27 28 29 30 31 32 33 34 35 36 37 38 39 40 41 42 43 44 45 46 47 48 49 50
000
ASUS43 KOAX 301802
RWRNE

WEATHER ROUNDUP FOR NEBRASKA
NATIONAL WEATHER SERVICE OMAHA NE
100 PM CDT THU JUL 30 2015

NOTES: SATELLITE DATA IS BEING USED TO AUGMENT CLOUD COVER ABOVE
       12000 FEET.
       "FAIR" INDICATES FEW OR NO CLOUDS BELOW 12,000 FEET WITH NO
       SIGNIFICANT WEATHER AND/OR OBSTRUCTIONS TO VISIBILITY.

  * THESE STATIONS DO NOT REPORT WEATHER SUCH AS RAIN...SNOW OR FOG.

NEZ001>004-019>022-054>056-301900-
NEBRASKA PANHANDLE

CITY           SKY/WX    TMP DP  RH WIND       PRES   REMARKS
SCOTTSBLUFF    SUNNY     82  57  42 MISG      30.29F
6HR MIN TEMP:  55; 6HR MAX TEMP:  82;

ALLIANCE       SUNNY     85  55  35 NE8       30.28F
6HR MIN TEMP:  56; 6HR MAX TEMP:  85;

CHADRON        SUNNY     85  49  28 MISG      30.27F
6HR MIN TEMP:  50; 6HR MAX TEMP:  85;

KIMBALL        SUNNY     79  54  41 NE6       30.33S
SIDNEY         SUNNY     85  56  37 S12       30.31F
6HR MIN TEMP:  57; 6HR MAX TEMP:  85;

$$

NEZ057>060-069>072-079>082-301900-
SOUTHWEST NEBRASKA

CITY           SKY/WX    TMP DP  RH WIND       PRES   REMARKS
NORTH PLATTE   SUNNY     84  58  40 SW10      30.25F
6HR MIN TEMP:  56; 6HR MAX TEMP:  84; 6HR PCP: TRACE;

IMPERIAL       SUNNY     85  60  42 S8        30.27F
6HR MIN TEMP:  56; 6HR MAX TEMP:  86;

LEXINGTON      SUNNY     83  64  52 SW9       30.25F
MCCOOK         SUNNY     86  62  44 S9        30.25F
6HR MIN TEMP:  56; 6HR MAX TEMP:  86;

$$

NEZ005>010-023>029-035>040-094-301900-
NORTH CENTRAL NEBRASKA

CITY           SKY/WX    TMP DP  RH WIND       PRES   REMARKS
VALENTINE      SUNNY     89  48  24 VRB3      30.21F
6HR MIN TEMP:  57; 6HR MAX TEMP:  89;

AINSWORTH      MOSUNNY   85  58  39 S6        30.22F
BROKEN BOW     SUNNY     84  64  50 W7        30.24F
6HR MIN TEMP:  62; 6HR MAX TEMP:  84;

ORD            SUNNY     85  62  46 S10       30.22S
6HR MIN TEMP:  56; 6HR MAX TEMP:  85;

$$

NEZ041-046>049-061>064-073>077-083>087-301900-
SOUTH CENTRAL NEBRASKA

CITY           SKY/WX    TMP DP  RH WIND       PRES   REMARKS
GRAND ISLAND   SUNNY     85  57  38 SW9       30.24F
6HR MIN TEMP:  58; 6HR MAX TEMP:  86;

AURORA         SUNNY     83  62  49 SW8       30.23F
HASTINGS       SUNNY     83  64  52 SW12      30.23F
6HR MIN TEMP:  60; 6HR MAX TEMP:  84;

KEARNEY *      SUNNY     82  64  54 S9        30.24S
$$

NEZ011>018-030>034-042>045-301900-
NORTHEAST NEBRASKA

CITY           SKY/WX    TMP DP  RH WIND       PRES   REMARKS
NORFOLK        SUNNY     86  56  35 W10G20    30.20F
6HR MIN TEMP:  57; 6HR MAX TEMP:  86;

BLAIR          SUNNY     81  60  49 SW7       30.21F
COLUMBUS *     SUNNY     84  63  48 W6        30.21F
FREMONT        SUNNY     84  59  42 W6        30.21F
TEKAMAH        MOSUNNY   85  67  54 SW3       30.19F
6HR MIN TEMP:  61; 6HR MAX TEMP:  85;

$$

NEZ050>053-065>068-078-088>093-301900-
SOUTHEAST NEBRASKA

CITY           SKY/WX    TMP DP  RH WIND       PRES   REMARKS
LINCOLN        SUNNY     89  55  31 SW14      30.21S
6HR MIN TEMP:  59; 6HR MAX TEMP:  89;

OMAHA EPPLEY   MOSUNNY   89  55  31 W9        30.20S
6HR MIN TEMP:  65; 6HR MAX TEMP:  89;

FALLS CITY     SUNNY     85  62  46 SW9       30.20F
6HR MIN TEMP:  62; 6HR MAX TEMP:  85;

$$

NEZ044-045-051>053-067-301900-
OMAHA AREA

CITY           SKY/WX    TMP DP  RH WIND       PRES   REMARKS
OMAHA EPPLEY   MOSUNNY   89  55  31 W9        30.20S
6HR MIN TEMP:  65; 6HR MAX TEMP:  89;

BLAIR          SUNNY     81  60  49 SW7       30.21F
FREMONT        SUNNY     84  59  42 W6        30.21F
OFFUTT AFB     SUNNY     85  63  47 W6        30.19F
$$


USA.gov is the U.S. government's official web portal to all federal, state and local government web resources and services.